User: anonymous   Login
Location: Unspecified
(0.0000°N, 0.0000°E)
Time: 13:16:53
(UTC+01:00)
Language:

ARIANE DEB (SPELDA) - Orbit

View from above orbital plane
View from above orbital plane
View from above satellite
View from above satellite

Ground track
Ground track

The orbit data is extracted from the following two-line orbital elements,

1 27402U 02015D   14327.65583501  .00001667  00000-0  16202-2 0  1088
2 27402 003.3392 181.7231 7102306 204.9572 040.3126 02.46077094110836
Epoch (UTC): 23 November 2014 15:44:24
Eccentricity: 0.7102306
inclination: 3.3392°
perigee height: 337 km
apogee height: 33256 km
right ascension of ascending node: 181.7231°
argument of perigee: 204.9572°
revolutions per day: 2.46077094
mean anomaly at epoch: 40.3126°
orbit number at epoch: 11083

The dashed part of the orbit path shows where the satellite is in the earth's shadow,  

DLR